Location: Sawmill Trailhead
(33.5800°N, 116.4497°W)
Time: 04:09:11
(UTC-07:00)

Uosat F - Visible Passes

Search period start: 01 November 2014 00:00
Search period end: 10 November 2014 23:00
Orbit: 752 x 761 km, 98.7° (Epoch: 31 October)

Date Brightness Start Highest point End Pass type
(mag) Time Alt. Az. Time Alt. Az. Time Alt. Az.
01 Nov 13.1 04:25:32 10° NE 04:29:39 25° E 04:33:44 10° SSE visible
01 Nov 11.8 06:04:00 10° N 06:08:22 30° WNW 06:12:42 10° SW visible
02 Nov 10.9 04:24:21 10° N 04:29:24 77° WNW 04:34:24 10° SSW visible
03 Nov 12.3 03:45:28 10° NNE 03:50:13 40° E 03:54:55 10° S visible
03 Nov 12.3 05:25:09 10° NNW 05:28:39 19° WNW 05:32:09 10° WSW visible
04 Nov 13.8 03:07:50 10° ENE 03:10:50 16° E 03:13:49 10° SE visible
04 Nov 11.3 04:44:59 10° N 04:49:48 47° WNW 04:54:36 10° SW visible
05 Nov 11.3 04:05:42 10° NNE 04:10:44 67° ESE 04:15:43 10° S visible
06 Nov 13.1 03:27:17 10° NE 03:31:27 26° E 03:35:35 10° SSE visible
06 Nov 11.8 05:05:50 10° N 05:10:09 29° WNW 05:14:27 10° SW visible
07 Nov 10.9 04:26:09 10° N 04:31:11 75° WNW 04:36:11 10° SSW visible
08 Nov 12.2 03:47:15 10° NNE 03:52:01 42° E 03:56:44 10° S visible
08 Nov 12.4 05:27:00 10° NNW 05:30:26 19° WNW 05:33:51 10° WSW visible
09 Nov 13.7 03:09:33 10° NE 03:12:38 16° E 03:15:41 10° SE visible
09 Nov 11.3 04:46:47 10° N 04:51:35 46° WNW 04:56:21 10° SW visible
10 Nov 11.3 04:07:29 10° NNE 04:12:31 69° ESE 04:17:30 10° S visible
